SCP
0 0 0 -0 0 0 0 0 0 0 0 0 0 0 0 0 0 0 0 0 0 -0 -0 -0 -0 -0 -0 -0 -0 -0 -0 -0 -0 0 0 0 0 -0 0 0 0 0 0 0 0 0 -0 -0 -0
0 0 0 0 0 0 0 0 0 -0 0 0 0 0 0 0 0 0 0 0 0 -0 -0 -0 0 0 0 -0 0 0 0 0 0 -0 0 0 0 0 0 0 0 0 -0 -0 -0 -0 -0 -0 -0
0 0 0 0 0 0 0 0 0 0 0 0 0 0 0 0 0 0 0 0 0 -0 0 0 0 0 0 0 0 0 0 0 0 0 0 0 0 0 0 0 0 0 -0 -0 -0 -0 -0 -0 -0
0 0 0 0 -0 0 0 0 0 0 0 0 0 0 0 0 0 0 0 0 0 0 0 0 0 0 0 0 0 0 0 0 0 0 0 0 0 0 0 0 0 0 -0 -0 -0 -0 -0 -0 -0
0 0 0 0 -0 0 0 0 0 0 0 0 0 0 0 0 0 0 0 0 0 0 0 0 0 0 0 0 0 0 0 0 0 0 0 0 0 0 0 0 0 0 0 0 -0 -0 -0 0 0
0 0 0 0 0 0 0 0 0 0 0 0 0 0 0 0 0 0 0 0 0 0 0 0 0 0 0 0 0 0 0 0 0 0 0 0 0 0 0 0 0 0 0 0 0 0 0 0 0
0 0 0 0 -0 0 0 0 0 0 0 0 0 0 0 0 0 0 0 0 0 0 0 0 0 0 0 0 0 0 0 0 0 0 0 0 0 0 0 0 0 0 0 0 0 0 0 0 0
0 0 0 0 0 -0 0 0 0 0 0 0 0 0 0 0 0 0 0 0 0 0 0 0 0 0 0 0 0 0 0 0 0 0 0 0 0 0 0 0 0 0 0 0 0 0 0 0 0
0 0 0 0 0 0 0 0 -0 0 0 0 0 0 0 0 0 0 0 0 0 0 0 0 0 0 0 0 0 0 0 0 0 0 0 0 0 0 0 0 0 0 0 0 0 0 0 0 0
0 0 0 0 0 0 0 0 0 0 0 0 0 0 0 0 0 0 0 0 0 0 0 0 0 0 0 0 0 0 0 0 0 0 0 0 0 0 0 0 0 0 0 0 0 0 0 0 0
0 0 0 0 0 0 0 0 0 0 0 0 0 0 0 0 0 0 0 0 0 0 0 0 0 0 0 0 0 0 0 0 0 0 0 0 0 0 0 0 0 0 0 0 0 0 0 0 0
0 0 0 0 0 0 0 0 0 0 0 0 0 0 0 0 0 0 0 0 0 0 0 0 0 0 0 0 0 0 0 0 0 0 0 0 0 0 0 0 0 0 0 0 0 0 0 0 0
0 0 0 0 0 0 0 0 0 0 0 0 0 0 0 0 0 0 0 0 0 0 0 0 0 0 0 0 0 0 0 0 0 0 0 0 0 0 0 0 0 0 0 0 0 0 0 0 0
0 0 0 0 0 0 0 0 0 0 -0 0 0 0 0 0 0 0 0 0 0 0 0 0 0 0 0 0 0 0 0 0 0 0 0 0 0 0 0 0 0 0 0 0 0 0 0 0 0
0 0 0 0 0 0 0 0 0 0 0 0 0 0 0 0 0 0 0 0 0 0 0 0 0 0 0 0 0 0 0 0 0 0 0 0 0 0 0 0 0 0 0 0 0 0 0 0 0
0 0 0 0 0 0 0 0 0 0 0 0 0 0 0 0 0 0 0 0 0 0 0 0 0 0 0 0 0 0 0 0 0 0 0 0 0 0 0 0 0 0 0 0 0 0 0 0 0
0 0 0 0 0 0 0 0 0 0 0 0 0 0 0 0 0 0 0 0 0 0 0 0 0 0 0 0 0 0 0 0 0 0 0 0 0 0 0 0 0 0 0 0 0 0 0 0 0
0 0 0 0 0 0 0 0 0 0 0 0 0 0 0 0 0 0 0 0 0 0 0 0 0 0 0 0 0 0 0 0 0 0 0 0 0 0 0 0 0 0 0 0 0 0 0 0 0
0 0 0 0 0 0 0 0 0 0 0 0 0 0 0 0 0 0 0 0 0 0 0 0 0 0 0 0 0 0 0 0 0 0 0 0 0 0 0 0 0 0 0 0 0 0 0 0 0
0 0 0 0 0 0 0 -0 0 0 0 0 0 0 0 0 0 0 0 0 0 0 0 0 0 0 0 0 0 0 0 0 0 0 0 0 0 0 0 0 0 0 0 0 0 0 0 0 0
0 0 0 0 0 0 0 -0 -0 -0 0 0 0 0 0 0 0 0 0 0 0 0 0 0 0 0 0 0 0 0 0 0 0 0 0 0 0 0 0 0 0 0 0 0 0 0 0 0 0
0 0 0 0 0 0 0 -0 -0 0 0 0 0 0 0 0 0 0 0 0 0 0 0 0 0 0 0 0 0 0 0 0 0 0 0 0 0 0 0 0 0 0 0 0 0 0 0 0 0
0 0 0 0 0 0 0 0 -0 0 0 0 0 0 0 0 0 0 0 0 0 0 0 0 0 0 0 0 0 0 0 0 0 0 0 0 0 0 0 0 0 0 0 0 0 0 0 0 0
0 0 0 0 0 0 0 0 -0 0 0 -0 0 0 0 0 0 0 0 0 0 0 0 0 0 0 0 0 0 0 0 0 0 0 0 0 0 0 0 0 0 0 0 0 0 0 0 0 0
0 0 0 0 0 0 0 0 0 0 0 0 0 0 0 0 0 0 0 0 0 0 0 0 0 0 0 0 0 0 0 0 0 0 0 0 0 0 0 0 0 0 0 0 0 0 0 0 0
0 0 0 0 0 0 0 0 0 0 0 0 0 0 0 0 0 0 0 0 0 0 0 0 0 0 0 0 0 0 0 0 0 0 0 0 0 0 0 0 0 0 0 0 0 0 0 0 0
0 0 0 0 0 0 0 0 0 0 0 0 0 0 0 0 0 0 0 0 0 0 0 0 0 0 0 0 0 0 0 0 0 0 0 0 0 0 0 0 0 0 0 0 0 0 0 0 0
0 0 0 0 0 0 0 0 0 0 0 0 0 0 0 0 0 0 0 0 0 0 0 0 0 0 0 0 0 0 0 0 0 0 0 0 0 0 0 0 0 0 0 0 0 0 0 0 0
0 0 0 0 0 0 0 0 0 0 0 0 0 0 0 0 0 0 0 0 0 0 0 0 0 0 0 0 0 0 0 0 0 0 0 0 0 0 0 0 0 0 0 0 0 0 0 0 0
0 0 0 0 0 0 0 0 0 0 0 0 0 0 0 0 0 0 0 0 0 0 0 0 0 0 0 0 0 0 0 0 0 0 0 0 0 0 0 0 0 0 0 0 0 0 0 0 0
Wind_Speed_500mb
24 20 18 7 10 9 19 12 11 10 7 7 9 12 15 15 11 2 7 25 30 49 52 55 53 50 47 44 42 39 34 30 27 26 25 23 20 16 15 14 11 10 8 4 3 2 3 4 6
25 17 14 7 14 21 23 18 24 25 10 6 11 14 14 18 22 12 8 28 35 52 53 56 56 53 49 45 43 40 37 33 30 27 26 25 23 24 21 21 19 17 18 19 17 16 15 13 12
30 18 12 8 20 32 27 20 24 11 19 15 10 12 10 8 16 15 14 27 39 54 55 54 55 54 48 45 43 41 37 33 32 32 33 27 28 26 21 20 20 22 22 21 22 23 22 23 22
9 7 9 19 45 34 34 21 12 9 7 14 15 13 12 27 13 21 27 29 42 54 56 51 51 51 49 47 41 42 40 34 35 35 31 26 27 25 24 23 24 25 26 26 26 27 29 28 28
15 8 19 28 51 46 38 44 22 19 14 18 17 21 16 28 28 33 25 35 46 55 56 54 50 46 48 51 47 43 41 43 40 36 30 30 30 27 27 27 27 28 29 30 30 29 27 24 23
14 10 20 36 49 46 45 45 43 39 42 33 14 38 32 32 39 38 36 38 47 57 60 56 53 51 50 51 50 48 43 42 38 34 34 33 31 30 29 29 29 28 28 28 24 21 19 17 16
21 19 38 49 54 49 46 41 43 39 42 39 24 22 21 33 43 41 42 45 52 59 61 60 58 57 58 54 52 46 42 40 38 37 36 33 31 30 31 29 27 26 24 19 17 15 14 13 12
20 11 33 41 43 64 52 51 45 36 52 37 27 18 30 31 44 44 47 49 56 64 65 64 62 60 57 54 50 46 44 40 39 39 37 33 31 31 30 24 23 21 20 16 15 13 12 12 14
18 17 30 53 51 46 11 23 46 28 35 16 26 30 27 23 32 47 52 58 64 68 70 67 65 62 59 57 53 48 45 43 42 41 37 35 34 32 29 26 23 21 18 16 15 16 15 15 15
26 26 44 43 41 44 41 34 43 23 34 33 35 39 44 39 37 51 63 69 74 74 76 74 70 67 65 60 56 54 52 50 48 46 41 39 36 33 30 26 24 21 18 17 18 17 16 16 14
15 34 44 48 51 45 43 35 34 36 46 50 54 50 44 50 51 55 65 72 74 70 78 78 74 72 67 65 61 58 56 53 51 47 44 41 37 34 31 29 26 23 21 20 19 17 15 15 14
24 34 57 46 41 31 36 38 31 51 64 57 42 45 40 54 59 65 68 70 72 75 76 78 79 76 70 68 63 59 55 52 50 49 47 43 39 37 34 30 27 24 22 20 18 17 14 13 14
27 36 35 45 52 45 35 37 44 38 55 53 50 48 53 54 59 64 68 70 66 74 76 78 81 77 74 72 67 61 56 52 52 51 48 44 42 38 35 32 28 25 23 19 18 16 14 13 14
9 31 44 36 46 38 27 43 28 29 71 63 60 65 63 64 81 68 70 77 79 82 78 80 82 80 78 74 69 63 60 57 57 54 49 45 43 40 36 33 30 27 23 20 18 16 15 14 14
17 26 34 34 41 23 13 39 45 72 70 62 60 64 57 61 63 82 79 76 84 83 80 84 85 83 81 74 71 67 63 62 60 55 51 49 45 40 37 34 30 27 24 21 19 18 16 15 13
11 10 16 7 16 14 24 55 28 45 45 55 61 56 57 59 66 71 83 80 78 82 86 85 87 88 83 78 75 71 66 66 62 58 54 51 46 42 38 35 31 27 24 21 20 19 17 14 12
19 30 38 28 20 9 32 42 18 16 25 41 44 41 43 47 50 63 76 86 85 79 82 87 90 93 88 83 79 74 70 69 65 61 58 54 48 44 40 36 33 29 26 24 22 20 17 14 12
33 34 30 29 9 16 29 53 40 43 33 38 45 52 56 57 63 59 58 75 85 94 84 85 88 95 94 88 83 80 76 73 71 68 63 57 52 47 43 39 34 31 28 26 25 21 17 14 12
33 30 44 27 7 11 37 54 46 45 57 50 60 67 72 73 83 71 75 65 76 92 97 94 92 97 101 99 96 91 90 86 80 72 66 62 56 50 46 42 37 34 31 27 25 21 17 14 10
50 47 54 36 21 12 40 68 50 42 53 62 63 69 76 82 74 78 87 87 87 84 98 102 102 100 108 106 99 95 92 88 81 77 72 68 62 54 49 44 39 36 32 28 26 22 17 14 10
50 55 51 45 18 30 28 60 43 40 59 69 66 73 77 80 77 67 67 79 78 94 97 103 108 104 109 110 104 98 94 91 90 87 83 75 62 59 53 46 42 38 34 29 26 23 19 15 12
48 38 43 38 17 22 5 32 40 36 29 25 33 52 66 62 57 57 53 67 70 83 95 100 104 109 108 113 114 111 108 109 106 94 82 77 71 63 56 50 44 40 36 32 27 24 21 18 16
27 13 30 32 32 21 31 15 31 8 11 25 37 50 43 40 42 47 49 61 66 62 77 94 102 108 110 117 120 115 111 105 102 99 91 83 75 66 61 55 48 43 37 33 29 26 23 22 19
29 15 13 8 10 15 36 26 70 30 23 21 14 14 7 2 8 13 24 38 46 57 69 78 97 107 112 116 122 121 115 111 108 102 97 89 79 73 69 60 51 45 39 33 30 28 26 25 22
25 20 10 12 11 22 6 26 56 14 22 23 16 12 14 14 17 24 24 24 34 48 61 68 83 101 109 116 120 120 117 115 107 104 98 93 89 84 76 65 58 49 40 36 32 30 30 27 26
34 31 14 24 20 28 12 25 21 12 25 27 18 23 28 19 14 11 11 13 18 32 47 56 70 85 97 107 114 116 116 116 108 100 96 95 91 85 75 68 61 52 44 40 36 33 33 32 30
16 26 38 12 3 8 16 23 20 28 28 16 13 9 8 13 16 18 15 11 6 17 32 44 55 70 84 92 101 109 114 116 112 100 93 90 89 85 75 69 64 57 51 45 40 38 36 35 34
20 11 13 13 16 22 25 33 24 13 10 11 18 20 25 27 29 27 24 20 12 2 16 29 39 51 67 76 86 97 108 110 107 98 94 92 85 81 76 71 67 63 58 52 47 43 41 40 37
17 19 12 6 12 12 13 12 12 7 13 18 22 28 31 33 34 34 34 31 24 13 2 14 25 36 48 62 74 83 95 101 102 95 93 89 82 79 79 75 71 69 64 58 54 48 45 44 41
20 28 35 13 15 12 11 8 12 19 19 22 23 29 33 36 34 36 38 37 35 29 17 4 12 23 31 42 57 68 78 87 94 94 92 88 82 79 77 76 75 72 68 62 59 53 50 47 45
Wind_Direction_500mb
282 304 316 291 246 240 249 243 263 229 224 195 151 208 232 281 213 298 206 185 188 186 187 186 190 191 190 191 191 190 190 193 196 197 201 204 204 208 215 213 203 195 188 180 199 234 271 257 258
264 294 301 256 251 247 250 239 235 241 238 179 202 227 243 257 239 278 198 190 188 187 189 189 190 190 191 191 191 192 195 197 199 196 201 204 198 194 193 191 198 190 193 192 202 222 236 262 275
260 260 259 246 246 245 257 231 255 258 232 229 232 231 253 230 244 232 232 201 194 189 192 193 190 189 188 193 193 195 199 201 199 204 212 213 213 215 213 213 213 213 224 235 247 260 265 265 264
220 211 233 240 249 242 260 258 229 190 195 210 239 245 234 238 249 238 234 207 201 196 193 195 192 189 187 191 194 194 199 200 199 203 214 208 213 221 226 228 229 233 240 248 255 264 269 268 264
198 227 241 244 251 255 247 259 241 243 264 240 209 259 252 250 257 248 241 219 205 201 197 192 189 191 194 196 196 192 190 194 203 215 223 223 229 234 237 240 241 244 250 256 261 265 265 263 264
212 234 233 248 255 246 244 251 243 248 259 250 232 253 260 253 251 248 242 225 211 207 201 193 185 188 191 193 194 196 205 212 219 225 230 232 232 235 240 242 244 247 250 254 258 261 262 263 264
232 228 244 256 263 264 251 247 240 243 251 247 245 245 257 254 253 242 231 217 209 208 204 196 193 193 197 201 205 211 216 220 227 232 234 232 234 237 239 241 241 240 241 238 243 248 257 265 269
220 244 247 249 258 263 261 247 247 239 249 252 217 240 249 245 251 234 218 212 209 207 205 203 202 203 205 207 212 219 222 225 229 233 236 235 234 236 237 229 224 224 227 230 237 238 247 261 273
205 237 238 246 251 248 261 239 242 247 244 215 213 231 233 237 241 226 212 207 206 207 207 207 208 208 209 211 215 220 224 228 233 235 231 230 232 223 217 217 217 221 227 231 238 246 253 259 267
214 230 237 242 257 262 262 251 250 246 231 238 238 238 239 240 239 224 216 213 209 210 211 209 209 210 211 212 216 220 225 229 232 230 226 223 216 214 215 215 217 222 227 240 246 249 256 261 262
229 242 243 253 257 264 262 242 244 242 253 246 247 252 245 239 232 227 222 220 221 214 213 212 210 211 211 214 218 222 227 230 227 221 216 211 212 212 214 214 216 223 228 234 242 248 252 259 267
240 248 254 259 262 251 247 253 241 242 253 255 263 256 242 249 232 230 227 222 221 222 220 215 213 213 212 217 221 226 229 225 217 209 208 209 211 212 213 216 218 221 226 230 233 242 249 263 274
235 254 261 258 261 255 258 244 249 247 254 259 255 252 249 249 253 245 234 232 223 221 221 218 216 215 216 218 221 224 223 216 210 207 208 209 212 214 215 216 216 217 222 226 236 241 253 259 270
302 256 263 268 264 256 246 253 247 240 255 259 254 250 248 242 248 244 237 230 228 230 225 221 218 217 218 219 222 221 217 211 210 209 210 212 214 214 215 216 215 215 218 223 232 242 249 254 261
275 281 273 250 249 244 225 264 242 244 251 256 256 253 250 243 242 242 243 240 236 234 230 225 221 219 219 220 221 218 216 212 212 211 213 213 214 213 215 216 215 217 218 223 228 235 242 249 252
257 243 268 216 228 233 195 256 267 253 247 245 252 256 255 250 243 241 241 241 240 234 230 228 224 221 220 219 219 218 217 214 213 213 214 214 213 214 215 215 216 220 223 227 230 232 237 246 255
227 259 241 272 200 165 208 267 249 228 226 245 252 253 251 253 245 244 241 239 239 238 234 230 226 223 220 219 218 218 217 216 214 214 214 214 214 215 215 215 217 220 223 229 230 232 234 243 249
239 244 249 250 192 225 242 256 260 257 253 252 262 261 259 258 256 256 244 238 236 238 237 233 230 225 221 219 217 217 216 215 215 215 214 213 214 214 216 217 220 221 224 226 230 229 232 239 245
262 263 262 268 253 249 254 265 263 267 268 260 257 258 259 257 257 255 250 241 235 232 232 231 229 225 221 217 215 215 214 213 213 213 214 213 214 213 215 217 220 222 224 224 228 232 232 238 248
241 254 259 264 252 259 277 276 274 261 261 255 252 252 253 256 255 252 254 243 233 232 230 229 229 227 222 220 218 218 216 215 215 213 214 213 213 213 215 217 221 224 224 226 228 231 234 238 245
235 239 250 253 277 256 283 281 277 252 242 254 252 249 252 250 252 249 244 244 237 230 229 228 227 225 223 220 217 215 217 214 212 212 213 212 212 214 214 216 219 224 224 225 229 232 234 238 236
239 233 242 248 242 259 237 283 280 277 241 234 244 241 241 246 250 251 239 241 240 236 233 230 228 225 222 219 217 217 217 214 216 216 214 212 213 214 214 214 218 223 224 226 229 233 236 239 240
236 175 212 226 233 275 227 258 270 98 255 257 248 246 252 250 251 254 249 250 250 242 233 230 227 226 223 220 219 218 218 220 219 214 212 212 213 213 215 215 216 220 222 225 230 236 240 241 243
135 116 101 130 198 240 237 217 278 267 278 263 284 251 199 167 244 255 262 252 236 233 231 230 226 224 223 220 220 219 218 219 219 217 213 211 212 214 215 215 216 217 220 225 231 237 242 244 246
192 162 188 210 201 242 182 200 256 319 289 261 271 247 281 288 286 282 278 265 238 226 222 224 224 223 223 221 221 221 220 221 223 221 215 211 211 213 215 214 215 216 220 225 232 239 245 246 247
197 189 206 229 221 242 165 225 246 255 265 292 297 280 282 293 324 336 312 280 249 231 223 224 222 221 222 222 222 222 221 222 225 224 218 217 217 217 216 217 218 219 221 227 233 240 245 247 246
175 213 234 282 14 273 218 253 269 249 263 311 355 7 34 51 34 32 26 14 292 235 224 223 220 223 226 226 223 222 221 222 223 224 221 221 221 220 220 221 221 221 225 231 236 242 247 248 246
214 164 185 218 224 228 245 259 256 236 220 53 50 50 56 52 44 41 41 41 43 229 227 221 223 223 227 226 225 224 222 222 224 225 221 221 222 221 222 223 223 224 228 233 237 242 245 249 247
180 202 221 256 231 236 254 239 4 39 87 84 67 61 59 56 46 43 47 48 54 58 151 221 226 223 226 224 224 223 223 223 224 225 223 222 222 220 221 223 224 227 230 234 238 242 246 248 247
256 230 203 206 197 233 303 264 60 88 85 87 76 65 56 56 52 47 49 52 57 59 62 103 217 231 233 230 226 225 225 224 224 224 222 221 222 223 223 223 225 227 231 235 240 243 248 249 248
Wind_Speed_850mb
24 20 18 7 10 9 19 12 11 10 7 7 9 12 15 15 11 2 7 25 30 49 52 55 53 50 47 44 42 39 34 30 27 26 25 23 20 16 15 14 11 10 8 4 3 2 3 4 6
25 17 14 7 14 21 23 18 24 25 10 6 11 14 14 18 22 12 8 28 35 52 53 56 56 53 49 45 43 40 37 33 30 27 26 25 23 24 21 21 19 17 18 19 17 16 15 13 12
30 18 12 8 20 32 27 20 24 11 19 15 10 12 10 8 16 15 14 27 39 54 55 54 55 54 48 45 43 41 37 33 32 32 33 27 28 26 21 20 20 22 22 21 22 23 22 23 22
9 7 9 19 45 34 34 21 12 9 7 14 15 13 12 27 13 21 27 29 42 54 56 51 51 51 49 47 41 42 40 34 35 35 31 26 27 25 24 23 24 25 26 26 26 27 29 28 28
15 8 19 28 51 46 38 44 22 19 14 18 17 21 16 28 28 33 25 35 46 55 56 54 50 46 48 51 47 43 41 43 40 36 30 30 30 27 27 27 27 28 29 30 30 29 27 24 23
14 10 20 36 49 46 45 45 43 39 42 33 14 38 32 32 39 38 36 38 47 57 60 56 53 51 50 51 50 48 43 42 38 34 34 33 31 30 29 29 29 28 28 28 24 21 19 17 16
21 19 38 49 54 49 46 41 43 39 42 39 24 22 21 33 43 41 42 45 52 59 61 60 58 57 58 54 52 46 42 40 38 37 36 33 31 30 31 29 27 26 24 19 17 15 14 13 12
20 11 33 41 43 64 52 51 45 36 52 37 27 18 30 31 44 44 47 49 56 64 65 64 62 60 57 54 50 46 44 40 39 39 37 33 31 31 30 24 23 21 20 16 15 13 12 12 14
18 17 30 53 51 46 11 23 46 28 35 16 26 30 27 23 32 47 52 58 64 68 70 67 65 62 59 57 53 48 45 43 42 41 37 35 34 32 29 26 23 21 18 16 15 16 15 15 15
26 26 44 43 41 44 41 34 43 23 34 33 35 39 44 39 37 51 63 69 74 74 76 74 70 67 65 60 56 54 52 50 48 46 41 39 36 33 30 26 24 21 18 17 18 17 16 16 14
15 34 44 48 51 45 43 35 34 36 46 50 54 50 44 50 51 55 65 72 74 70 78 78 74 72 67 65 61 58 56 53 51 47 44 41 37 34 31 29 26 23 21 20 19 17 15 15 14
24 34 57 46 41 31 36 38 31 51 64 57 42 45 40 54 59 65 68 70 72 75 76 78 79 76 70 68 63 59 55 52 50 49 47 43 39 37 34 30 27 24 22 20 18 17 14 13 14
27 36 35 45 52 45 35 37 44 38 55 53 50 48 53 54 59 64 68 70 66 74 76 78 81 77 74 72 67 61 56 52 52 51 48 44 42 38 35 32 28 25 23 19 18 16 14 13 14
9 31 44 36 46 38 27 43 28 29 71 63 60 65 63 64 81 68 70 77 79 82 78 80 82 80 78 74 69 63 60 57 57 54 49 45 43 40 36 33 30 27 23 20 18 16 15 14 14
17 26 34 34 41 23 13 39 45 72 70 62 60 64 57 61 63 82 79 76 84 83 80 84 85 83 81 74 71 67 63 62 60 55 51 49 45 40 37 34 30 27 24 21 19 18 16 15 13
11 10 16 7 16 14 24 55 28 45 45 55 61 56 57 59 66 71 83 80 78 82 86 85 87 88 83 78 75 71 66 66 62 58 54 51 46 42 38 35 31 27 24 21 20 19 17 14 12
19 30 38 28 20 9 32 42 18 16 25 41 44 41 43 47 50 63 76 86 85 79 82 87 90 93 88 83 79 74 70 69 65 61 58 54 48 44 40 36 33 29 26 24 22 20 17 14 12
33 34 30 29 9 16 29 53 40 43 33 38 45 52 56 57 63 59 58 75 85 94 84 85 88 95 94 88 83 80 76 73 71 68 63 57 52 47 43 39 34 31 28 26 25 21 17 14 12
33 30 44 27 7 11 37 54 46 45 57 50 60 67 72 73 83 71 75 65 76 92 97 94 92 97 101 99 96 91 90 86 80 72 66 62 56 50 46 42 37 34 31 27 25 21 17 14 10
50 47 54 36 21 12 40 68 50 42 53 62 63 69 76 82 74 78 87 87 87 84 98 102 102 100 108 106 99 95 92 88 81 77 72 68 62 54 49 44 39 36 32 28 26 22 17 14 10
50 55 51 45 18 30 28 60 43 40 59 69 66 73 77 80 77 67 67 79 78 94 97 103 108 104 109 110 104 98 94 91 90 87 83 75 62 59 53 46 42 38 34 29 26 23 19 15 12
48 38 43 38 17 22 5 32 40 36 29 25 33 52 66 62 57 57 53 67 70 83 95 100 104 109 108 113 114 111 108 109 106 94 82 77 71 63 56 50 44 40 36 32 27 24 21 18 16
27 13 30 32 32 21 31 15 31 8 11 25 37 50 43 40 42 47 49 61 66 62 77 94 102 108 110 117 120 115 111 105 102 99 91 83 75 66 61 55 48 43 37 33 29 26 23 22 19
29 15 13 8 10 15 36 26 70 30 23 21 14 14 7 2 8 13 24 38 46 57 69 78 97 107 112 116 122 121 115 111 108 102 97 89 79 73 69 60 51 45 39 33 30 28 26 25 22
25 20 10 12 11 22 6 26 56 14 22 23 16 12 14 14 17 24 24 24 34 48 61 68 83 101 109 116 120 120 117 115 107 104 98 93 89 84 76 65 58 49 40 36 32 30 30 27 26
34 31 14 24 20 28 12 25 21 12 25 27 18 23 28 19 14 11 11 13 18 32 47 56 70 85 97 107 114 116 116 116 108 100 96 95 91 85 75 68 61 52 44 40 36 33 33 32 30
16 26 38 12 3 8 16 23 20 28 28 16 13 9 8 13 16 18 15 11 6 17 32 44 55 70 84 92 101 109 114 116 112 100 93 90 89 85 75 69 64 57 51 45 40 38 36 35 34
20 11 13 13 16 22 25 33 24 13 10 11 18 20 25 27 29 27 24 20 12 2 16 29 39 51 67 76 86 97 108 110 107 98 94 92 85 81 76 71 67 63 58 52 47 43 41 40 37
17 19 12 6 12 12 13 12 12 7 13 18 22 28 31 33 34 34 34 31 24 13 2 14 25 36 48 62 74 83 95 101 102 95 93 89 82 79 79 75 71 69 64 58 54 48 45 44 41
20 28 35 13 15 12 11 8 12 19 19 22 23 29 33 36 34 36 38 37 35 29 17 4 12 23 31 42 57 68 78 87 94 94 92 88 82 79 77 76 75 72 68 62 59 53 50 47 45
Wind_Direction_850mb
282 304 316 291 246 240 249 243 263 229 224 195 151 208 232 281 213 298 206 185 188 186 187 186 190 191 190 191 191 190 190 193 196 197 201 204 204 208 215 213 203 195 188 180 199 234 271 257 258
264 294 301 256 251 247 250 239 235 241 238 179 202 227 243 257 239 278 198 190 188 187 189 189 190 190 191 191 191 192 195 197 199 196 201 204 198 194 193 191 198 190 193 192 202 222 236 262 275
260 260 259 246 246 245 257 231 255 258 232 229 232 231 253 230 244 232 232 201 194 189 192 193 190 189 188 193 193 195 199 201 199 204 212 213 213 215 213 213 213 213 224 235 247 260 265 265 264
220 211 233 240 249 242 260 258 229 190 195 210 239 245 234 238 249 238 234 207 201 196 193 195 192 189 187 191 194 194 199 200 199 203 214 208 213 221 226 228 229 233 240 248 255 264 269 268 264
198 227 241 244 251 255 247 259 241 243 264 240 209 259 252 250 257 248 241 219 205 201 197 192 189 191 194 196 196 192 190 194 203 215 223 223 229 234 237 240 241 244 250 256 261 265 265 263 264
212 234 233 248 255 246 244 251 243 248 259 250 232 253 260 253 251 248 242 225 211 207 201 193 185 188 191 193 194 196 205 212 219 225 230 232 232 235 240 242 244 247 250 254 258 261 262 263 264
232 228 244 256 263 264 251 247 240 243 251 247 245 245 257 254 253 242 231 217 209 208 204 196 193 193 197 201 205 211 216 220 227 232 234 232 234 237 239 241 241 240 241 238 243 248 257 265 269
220 244 247 249 258 263 261 247 247 239 249 252 217 240 249 245 251 234 218 212 209 207 205 203 202 203 205 207 212 219 222 225 229 233 236 235 234 236 237 229 224 224 227 230 237 238 247 261 273
205 237 238 246 251 248 261 239 242 247 244 215 213 231 233 237 241 226 212 207 206 207 207 207 208 208 209 211 215 220 224 228 233 235 231 230 232 223 217 217 217 221 227 231 238 246 253 259 267
214 230 237 242 257 262 262 251 250 246 231 238 238 238 239 240 239 224 216 213 209 210 211 209 209 210 211 212 216 220 225 229 232 230 226 223 216 214 215 215 217 222 227 240 246 249 256 261 262
229 242 243 253 257 264 262 242 244 242 253 246 247 252 245 239 232 227 222 220 221 214 213 212 210 211 211 214 218 222 227 230 227 221 216 211 212 212 214 214 216 223 228 234 242 248 252 259 267
240 248 254 259 262 251 247 253 241 242 253 255 263 256 242 249 232 230 227 222 221 222 220 215 213 213 212 217 221 226 229 225 217 209 208 209 211 212 213 216 218 221 226 230 233 242 249 263 274
235 254 261 258 261 255 258 244 249 247 254 259 255 252 249 249 253 245 234 232 223 221 221 218 216 215 216 218 221 224 223 216 210 207 208 209 212 214 215 216 216 217 222 226 236 241 253 259 270
302 256 263 268 264 256 246 253 247 240 255 259 254 250 248 242 248 244 237 230 228 230 225 221 218 217 218 219 222 221 217 211 210 209 210 212 214 214 215 216 215 215 218 223 232 242 249 254 261
275 281 273 250 249 244 225 264 242 244 251 256 256 253 250 243 242 242 243 240 236 234 230 225 221 219 219 220 221 218 216 212 212 211 213 213 214 213 215 216 215 217 218 223 228 235 242 249 252
257 243 268 216 228 233 195 256 267 253 247 245 252 256 255 250 243 241 241 241 240 234 230 228 224 221 220 219 219 218 217 214 213 213 214 214 213 214 215 215 216 220 223 227 230 232 237 246 255
227 259 241 272 200 165 208 267 249 228 226 245 252 253 251 253 245 244 241 239 239 238 234 230 226 223 220 219 218 218 217 216 214 214 214 214 214 215 215 215 217 220 223 229 230 232 234 243 249
239 244 249 250 192 225 242 256 260 257 253 252 262 261 259 258 256 256 244 238 236 238 237 233 230 225 221 219 217 217 216 215 215 215 214 213 214 214 216 217 220 221 224 226 230 229 232 239 245
262 263 262 268 253 249 254 265 263 267 268 260 257 258 259 257 257 255 250 241 235 232 232 231 229 225 221 217 215 215 214 213 213 213 214 213 214 213 215 217 220 222 224 224 228 232 232 238 248
241 254 259 264 252 259 277 276 274 261 261 255 252 252 253 256 255 252 254 243 233 232 230 229 229 227 222 220 218 218 216 215 215 213 214 213 213 213 215 217 221 224 224 226 228 231 234 238 245
235 239 250 253 277 256 283 281 277 252 242 254 252 249 252 250 252 249 244 244 237 230 229 228 227 225 223 220 217 215 217 214 212 212 213 212 212 214 214 216 219 224 224 225 229 232 234 238 236
239 233 242 248 242 259 237 283 280 277 241 234 244 241 241 246 250 251 239 241 240 236 233 230 228 225 222 219 217 217 217 214 216 216 214 212 213 214 214 214 218 223 224 226 229 233 236 239 240
236 175 212 226 233 275 227 258 270 98 255 257 248 246 252 250 251 254 249 250 250 242 233 230 227 226 223 220 219 218 218 220 219 214 212 212 213 213 215 215 216 220 222 225 230 236 240 241 243
135 116 101 130 198 240 237 217 278 267 278 263 284 251 199 167 244 255 262 252 236 233 231 230 226 224 223 220 220 219 218 219 219 217 213 211 212 214 215 215 216 217 220 225 231 237 242 244 246
192 162 188 210 201 242 182 200 256 319 289 261 271 247 281 288 286 282 278 265 238 226 222 224 224 223 223 221 221 221 220 221 223 221 215 211 211 213 215 214 215 216 220 225 232 239 245 246 247
197 189 206 229 221 242 165 225 246 255 265 292 297 280 282 293 324 336 312 280 249 231 223 224 222 221 222 222 222 222 221 222 225 224 218 217 217 217 216 217 218 219 221 227 233 240 245 247 246
175 213 234 282 14 273 218 253 269 249 263 311 355 7 34 51 34 32 26 14 292 235 224 223 220 223 226 226 223 222 221 222 223 224 221 221 221 220 220 221 221 221 225 231 236 242 247 248 246
214 164 185 218 224 228 245 259 256 236 220 53 50 50 56 52 44 41 41 41 43 229 227 221 223 223 227 226 225 224 222 222 224 225 221 221 222 221 222 223 223 224 228 233 237 242 245 249 247
180 202 221 256 231 236 254 239 4 39 87 84 67 61 59 56 46 43 47 48 54 58 151 221 226 223 226 224 224 223 223 223 224 225 223 222 222 220 221 223 224 227 230 234 238 242 246 248 247
256 230 203 206 197 233 303 264 60 88 85 87 76 65 56 56 52 47 49 52 57 59 62 103 217 231 233 230 226 225 225 224 224 224 222 221 222 223 223 223 225 227 231 235 240 243 248 249 248